Location: Paderno d�Adda
(45.6667°N, 9.4333°E)
Time: 14:28:41
(UTC+00:00)

ATLAS CENTAUR R/B - Pass Details

Date: 19 September 2020
Orbit: 479 x 667 km, 64.7° (Epoch: 12 October)

Event Time Altitude Azimuth Distance (km) Brightness Sun altitude
Rises 17:50:04 0° 264° (W) 2,669 6.9 -5.2°
Reaches altitude 10° 17:53:08 10° 289° (WNW) 1,744 5.6 -5.7°
Maximum altitude 17:55:21 15° 324° (NW) 1,454 4.1 -6.1°
Drops below altitude 10° 17:57:33 10° 360° (N) 1,703 3.9 -6.5°
Sets 18:00:29 0° 25° (NNE) 2,566 4.6 -7.0°
